KB6VSE Weather Reports


Display with metric or nautical units.
time (UTC)temp
F
wind
direction
speed
MPH
gust
MPH
rain 1hr
in
rain 24hr
in
rain mn
in
humidity
%
barometer
mb
20260506204554 74 0 0.0 0.0 0.00 0.00 0.00 59 1020.9
20260506203046 74 0 0.0 1.0 0.00 0.00 0.00 59 1020.8
20260506201545 73 0 0.0 0.0 0.00 0.00 0.00 64 1021.0
20260506194558 70 0 0.0 0.0 0.00 0.00 0.00 66 1021.4
20260506193048 69 0 0.0 0.0 0.00 0.00 0.00 68 1021.5
20260506191548 69 0 0.0 0.0 0.00 0.00 0.00 67 1021.7
20260506190045 67 0 0.0 0.0 0.00 0.00 0.00 70 1021.8
20260506184543 67 0 0.0 0.0 0.00 0.00 0.00 72 1022.0
20260506183101 66 0 0.0 0.0 0.00 0.00 0.00 74 1022.0
20260506181553 65 0 0.0 0.0 0.00 0.00 0.00 72 1022.1
20260506180047 64 0 0.0 0.0 0.00 0.00 0.00 73 1022.1
20260506174549 63 0 0.0 0.0 0.00 0.00 0.00 76 1022.4
20260506173053 63 0 0.0 0.0 0.00 0.00 0.00 76 1022.3
20260506171546 60 0 0.0 0.0 0.00 0.00 0.00 81 1022.5
20260506170046 59 0 0.0 0.0 0.00 0.00 0.00 81 1022.5
20260506164551 58 0 0.0 0.0 0.00 0.00 0.00 82 1022.7
20260506163051 57 0 0.0 0.0 0.00 0.00 0.00 82 1022.6
20260506161556 57 0 0.0 0.0 0.00 0.00 0.00 83 1022.6
20260506160047 56 0 0.0 0.0 0.00 0.00 0.00 85 1022.6
20260506154550 56 0 0.0 0.0 0.00 0.00 0.00 85 1022.6
20260506153051 55 0 0.0 0.0 0.00 0.00 0.00 87 1022.7
20260506151602 55 0 0.0 0.0 0.00 0.00 0.00 87 1022.6
20260506150055 54 0 0.0 0.0 0.00 0.00 0.00 88 1022.5
20260506144550 54 0 0.0 0.0 0.00 0.00 0.00 89 1022.5
20260506143048 54 0 0.0 0.0 0.00 0.00 0.00 89 1022.3
20260506141554 54 0 0.0 0.0 0.00 0.00 0.00 89 1022.3
20260506140059 54 0 0.0 0.0 0.00 0.00 0.00 89 1022.3
20260506134546 54 0 0.0 0.0 0.00 0.00 0.00 89 1022.2
20260506133047 54 0 0.0 0.0 0.00 0.00 0.00 88 1022.1
20260506131545 54 0 0.0 0.0 0.00 0.00 0.00 88 1022.0
20260506130057 54 0 0.0 0.0 0.00 0.00 0.00 88 1022.0
20260506124550 54 0 0.0 0.0 0.00 0.00 0.00 88 1021.8
20260506123048 54 0 0.0 0.0 0.00 0.00 0.00 87 1021.4
20260506121548 54 0 0.0 0.0 0.00 0.00 0.00 87 1021.4
20260506120047 54 0 0.0 0.0 0.00 0.00 0.00 86 1021.3
20260506114542 54 0 0.0 0.0 0.00 0.00 0.00 86 1021.3
20260506113049 54 0 0.0 0.0 0.00 0.00 0.00 86 1021.4
20260506111549 54 0 0.0 0.0 0.00 0.00 0.00 86 1021.1
20260506110056 54 0 0.0 0.0 0.00 0.00 0.00 86 1021.0
20260506104545 54 0 0.0 0.0 0.00 0.00 0.00 86 1020.9
20260506103047 54 0 0.0 0.0 0.00 0.00 0.00 86 1020.8
20260506101556 54 0 0.0 0.0 0.00 0.00 0.00 86 1020.6
20260506100051 54 0 0.0 0.0 0.00 0.00 0.00 86 1020.6
20260506094555 55 0 0.0 0.0 0.00 0.00 0.00 86 1020.5
20260506093053 55 0 0.0 0.0 0.00 0.00 0.00 87 1020.4
20260506091546 55 0 0.0 0.0 0.00 0.00 0.00 87 1020.3
20260506090050 55 0 0.0 0.0 0.00 0.00 0.00 87 1020.4
20260506084551 55 0 0.0 0.0 0.00 0.00 0.00 86 1020.3
20260506083050 55 0 0.0 0.0 0.00 0.00 0.00 86 1020.3
20260506081547 55 0 0.0 0.0 0.00 0.00 0.00 85 1020.3
20260506073048 55 0 0.0 0.0 0.00 0.00 0.00 84 1020.0
20260506071606 55 0 0.0 0.0 0.00 0.00 0.00 84 1019.9
20260506061545 55 0 0.0 0.0 0.00 0.00 0.00 84 1019.4
20260506044553 56 0 0.0 0.0 0.00 0.00 0.00 81 1018.9
20260506043101 56 0 0.0 0.0 0.00 0.00 0.00 81 1018.7
20260506041604 56 0 0.0 0.0 0.00 0.00 0.00 81 1018.4
20260506040050 56 0 0.0 0.0 0.00 0.00 0.00 80 1018.2
20260506034554 56 0 0.0 0.0 0.00 0.00 0.00 80 1018.0
20260506033051 57 0 0.0 0.0 0.00 0.00 0.00 78 1017.8
20260506031547 58 0 0.0 0.0 0.00 0.00 0.00 77 1017.5
20260506030051 59 0 0.0 0.0 0.00 0.00 0.00 76 1017.4
20260506024550 60 0 0.0 0.0 0.00 0.00 0.00 74 1017.0
20260506023051 61 0 0.0 0.0 0.00 0.00 0.00 72 1016.7
20260506021556 62 0 0.0 0.0 0.00 0.00 0.00 71 1016.5
20260506020045 62 0 0.0 1.0 0.00 0.00 0.00 69 1016.3
20260506014551 63 0 0.0 0.0 0.00 0.00 0.00 69 1016.3
20260506013052 64 0 0.0 0.0 0.00 0.00 0.00 69 1016.1
20260506011547 65 0 0.0 0.0 0.00 0.00 0.00 68 1016.0
20260506010051 66 0 0.0 0.0 0.00 0.00 0.00 65 1016.0
20260506004547 67 0 0.0 0.0 0.00 0.00 0.00 63 1015.9
20260506003044 68 0 0.0 0.0 0.00 0.00 0.00 62 1015.7
20260506001606 69 0 0.0 0.0 0.00 0.00 0.00 61 1015.6
20260506000048 70 0 0.0 0.0 0.00 0.00 0.00 60 1015.4
20260505234548 71 0 0.0 1.0 0.00 0.00 0.00 59 1015.4
20260505233053 71 0 0.0 0.0 0.00 0.00 0.00 60 1015.4
20260505231548 72 0 0.0 0.0 0.00 0.00 0.00 62 1015.5
20260505230044 72 0 0.0 0.0 0.00 0.00 0.00 62 1015.4
20260505224548 71 0 0.0 0.0 0.00 0.00 0.00 61 1015.5
20260505223051 70 0 0.0 0.0 0.00 0.00 0.00 63 1015.5
20260505221546 70 0 0.0 0.0 0.00 0.00 0.00 63 1015.9
20260505220050 69 0 0.0 0.0 0.00 0.00 0.00 62 1016.0
20260505214600 69 0 0.0 0.0 0.00 0.00 0.00 66 1016.1
20260505213054 67 0 0.0 1.0 0.00 0.00 0.00 65 1016.3
20260505211545 67 0 0.0 0.0 0.00 0.00 0.00 71 1016.4
20260505210052 65 0 0.0 0.0 0.00 0.00 0.00 70 1016.4